Regional Weather Roundup
Issued by NWS

Home | Current Version | Previous Version | Text Only | Print | Product List | Glossary On
Versions: 1 2 3 4 5 6 7 8 9 10 11 12 13 14 15 16 17 18 19 20 21 22 23 24 25 26 27 28 29 30 31 32 33 34 35 36 37 38 39 40 41 42 43 44 45 46 47 48 49 50
000
ASUS43 KLSX 191207
RWRMO

WEATHER SUMMARY FOR MISSOURI
NATIONAL WEATHER SERVICE SPRINGFIELD MO
700 AM CDT FRI SEP 19 2014

NOTE: "FAIR" INDICATES FEW OR NO CLOUDS BELOW 12,000 FEET WITH NO
       SIGNIFICANT WEATHER AND/OR OBSTRUCTIONS TO VISIBILITY.
       CURRENT SKY AND/OR WEATHER CONDITIONS ARE NOT AVAILABLE FOR
       CHILLICOTHE AND FARMINGTON.

MOZ001>031-035>038-043-044-053-054-191300-
...NORTHERN AND WESTERN MISSOURI...

CITY           SKY/WX    TMP DP  RH WIND       PRES   REMARKS
KANSAS CTY INT CLOUDY    62  61  96 SE9       30.02R
6HR MIN TEMP:  59; 6HR MAX TEMP:  62;

KANSAS C DTWN  CLOUDY    64  61  90 S6        30.02R
6HR MIN TEMP:  62; 6HR MAX TEMP:  64;

LEE`S SUMMIT   CLOUDY    62  60  93 S6        30.04R FOG
6HR MIN TEMP:  61; 6HR MAX TEMP:  62;

ST JOSEPH      CLOUDY    62  61  96 SE7       30.01S FOG
6HR MIN TEMP:  59; 6HR MAX TEMP:  62;

CHILLICOTHE      N/A     59  58  96 SE5       30.05F
6HR MIN TEMP:  56; 6HR MAX TEMP:  61;

KIRKSVILLE     PTCLDY    53  50  89 SE5       30.08R
6HR MIN TEMP:  50; 6HR MAX TEMP:  57;


$$
MOZ066>068-077>081-088>096-101>105-191300-
...SOUTHWEST MISSOURI...

CITY           SKY/WX    TMP DP  RH WIND       PRES   REMARKS
SPRINGFIELD    CLEAR     61  59  93 SE8       30.03S
6HR MIN TEMP:  60; 6HR MAX TEMP:  63;

JOPLIN         CLEAR     63  61  93 SE5       30.01S
6HR MIN TEMP:  62; 6HR MAX TEMP:  63;


$$
MOZ032>034-039>042-045>050-055>058-069>072-191300-
...CENTRAL MISSOURI...

CITY           SKY/WX    TMP DP  RH WIND       PRES   REMARKS
COLUMBIA       CLEAR     56  54  93 SE5       30.06
6HR MIN TEMP:  56; 6HR MAX TEMP:  61;

JEFFERSON CITY MOCLDY    54  53  97 CALM      30.06S FOG
6HR MIN TEMP:  53; 6HR MAX TEMP:  61;

ROLLA          CLEAR     55  54  96 E9        30.06R FOG
6HR MIN TEMP:  55; 6HR MAX TEMP:  58;

SEDALIA        FOG       61  60  97 SE7       30.06R VSB 1/2
6HR MIN TEMP:  59; 6HR MAX TEMP:  61;

WHITEMAN AFB   FOG       60  59  98 SE6       30.04S VSB 1/2
OSAGE BEACH    PTCLDY    55  52  88 CALM      30.06S

$$
MOZ051-052-059>065-191300-
...EAST CENTRAL MISSOURI...

CITY           SKY/WX    TMP DP  RH WIND       PRES   REMARKS
ST LOUIS INTL  PTCLDY    56  52  86 E5        30.09S
6HR MIN TEMP:  56; 6HR MAX TEMP:  62;

SPIRIT OF STL  CLEAR     50  49  96 CALM      30.08R
6HR MIN TEMP:  50; 6HR MAX TEMP:  54;

ST CHARLES     FOG       51  51 100 NE3       30.09R VSB 1/4
6HR MIN TEMP:  50; 6HR MAX TEMP:  56;


$$
MOZ072>076-082>087-097>100-106>115-191300-
...SOUTH CENTRAL AND SOUTHEAST MISSOURI...

CITY           SKY/WX    TMP DP  RH WIND       PRES   REMARKS
CAPE GIRARDEAU CLEAR     53  52  96 CALM      30.07R FOG
6HR MIN TEMP:  53; 6HR MAX TEMP:  57;

FARMINGTON     CLEAR     54  52  94 CALM      30.10R
6HR MIN TEMP:  54; 6HR MAX TEMP:  57;

POPLAR BLUFF   CLEAR     57  53  86 CALM      30.04R
6HR MIN TEMP:  57; 6HR MAX TEMP:  61;

WEST PLAINS    FOG       53  51  93 NE3       30.08R VSB 1/4
6HR MIN TEMP:  53; 6HR MAX TEMP:  57;


$$


USA.gov is the U.S. government's official web portal to all federal, state and local government web resources and services.